Content
SEND FEEDBACK

Daily
Averages
Monthly
Summary
United States of America

WHITEMAN AIR FORCE BASE, MISSOURI


Home > North America > United States > Missouri
Elevation: 837 feet     Latitude: 38 43N     Longitude: 093 33W

WEATHER
 
SELECT A DAY
Number of Records: 140,073;   Date Range: 1/1/00 - 7/26/14
 
SHARE

PRINT THIS DATA

[ ← Previous Day ]
WEATHER ALMANAC - JANUARY 6, 2013
[ Next Day → ]
[ °C ]   °F
Weather ElementAverageHighLow
Temperature28.6 °F38.3 °F (3:55 pm)23 °F (8:55 am)
Dewpoint21.7 °F26.4 °F (1:55 am)19.4 °F (9:31 am)
Humidity76.4 %92 % (1:55 am)51 % (3:55 pm)
Barometer30.34 in30.40 in (10:55 am)30.19 in (1:55 am)
Wind Speed8.8 mph19.6 mph (6:55 am)
Wind Gust25.3 mph (6:55 am)
Weather ElementAverage
Visibility10 mi
Wind DirectionW (272.2 °)

Weather ElementTotal
Precipitation---
Heating Degree Days34.4 (Base 65)
Averaged from 27 records on January 6, 2013
WEATHER CONDITIONS BREAKOUT
WIND DIRECTION BREAKOUT
WEATHER BY HOUR - JANUARY 6, 2013
[ °C ]   °F
Local TimeTemperatureDewpointHumidityBarometerVisibilityWind DirectionWind SpeedGust SpeedPrecipitationEventsConditions
1:55 AM28.6 °F26.4 °F92 %30.19 in10.0 miWest (270°)8.1 mphClear
2:55 AM29.1 °F25.3 °F86 %30.21 in10.0 miWNW (300°)11.5 mphClear
3:55 AM27.3 °F22.6 °F83 %30.22 in10.0 miNW (320°)9.2 mphClear
4:14 AM26.6 °F21.2 °F80 %30.23 in10.0 miNW (310°)8.1 mphMostly Cloudy
4:55 AM28.0 °F22.5 °F80 %30.25 in10.0 miNW (310°)11.5 mphOvercast
5:55 AM26.8 °F21.9 °F82 %30.27 in10.0 miNW (310°)12.7 mphScattered Clouds
6:55 AM25.0 °F20.8 °F84 %30.30 in10.0 miNNW (330°)19.6 mph25.3 mphMostly Cloudy
7:30 AM24.8 °F21.2 °F86 %30.33 in10.0 miNW (310°)12.7 mph20.7 mphOvercast
7:55 AM24.1 °F20.1 °F85 %30.34 in10.0 miNW (310°)12.7 mphOvercast
8:55 AM23.0 °F19.6 °F87 %30.36 in10.0 miNW (320°)10.4 mphScattered Clouds
9:31 AM24.8 °F19.4 °F80 %30.38 in10.0 miNW (320°)12.7 mphMostly Cloudy
9:42 AM24.8 °F19.4 °F80 %30.38 in10.0 miNNW (330°)9.2 mphScattered Clouds
9:55 AM25.9 °F20.5 °F80 %30.39 in10.0 miNNW (330°)10.4 mphScattered Clouds
10:55 AM28.0 °F21.0 °F75 %30.40 in10.0 miNNW (340°)9.2 mphClear
11:55 AM30.6 °F22.5 °F72 %30.39 in10.0 miWNW (300°)6.9 mphClear
12:55 PM34.2 °F21.9 °F61 %30.37 in10.0 miNW (320°)8.1 mphClear
1:55 PM36.5 °F22.1 °F56 %30.36 in10.0 miWest (280°)5.8 mphClear
2:55 PM38.1 °F21.9 °F52 %30.36 in10.0 miWSW (250°)4.6 mphClear
3:55 PM38.3 °F21.7 °F51 %30.36 in10.0 miWSW (240°)4.6 mphClear
4:55 PM35.6 °F21.7 °F57 %30.36 in10.0 miWSW (250°)3.5 mphClear
5:55 PM30.0 °F22.1 °F72 %30.37 in10.0 miSSW (210°)4.6 mphClear
6:55 PM29.5 °F21.4 °F72 %30.39 in10.0 miSSW (200°)5.8 mphClear
7:55 PM29.1 °F21.6 °F73 %30.38 in10.0 miSouth (170°)5.8 mphClear
8:55 PM27.1 °F22.1 °F81 %30.38 in10.0 miSouth (180°)6.9 mphClear
9:55 PM26.1 °F21.9 °F84 %30.37 in10.0 miSouth (180°)6.9 mphClear
10:55 PM25.5 °F22.1 °F87 %30.36 in10.0 miSouth (180°)6.9 mphClear
11:55 PM25.5 °F21.6 °F85 %30.35 in10.0 miSouth (180°)8.1 mphClear
Hourly data recorded from KSZL, located miles away from Whiteman Air Force Base, Missouri







STORIES FROM OUR PARTNERS